Home   Weather   Stornoway   Past weeks

Flag for United Kingdom Past Weather in Stornoway, Scotland, United Kingdom — Yesterday and Last 2 Weeks

Now
54 °F

Passing clouds.


Feels Like: 47 °F
Forecast: 50 / 58 °F
Wind: 30 mph from Southwest

Location: Stornoway

Current Time: Sep 27, 2016 at 9:47:46 PM

Latest Report: Sep 27, 2016 at 9:20 PM


Visibility: 5 mi

Pressure: 29.59 "Hg

Humidity: 88%

Dew Point: 50 °F

Location of StornowayLocation

Past Weather in Stornoway — Graph

°F

Stornoway Temperature Yesterday

Maximum temperature yesterday: 59 °F (at 2:20 PM)
Minimum temperature yesterday: 46 °F (at 3:20 AM)
Average temperature yesterday: 52 °F

High & Low Weather Summary for the Past Weeks

 TemperatureHumidityPressure
High63 °F (Sep 13, 12:50 PM)100% (Sep 14, 12:50 AM)30.18 "Hg (Sep 14, 12:50 AM)
Low41 °F (Sep 14, 3:20 AM)63% (Sep 25, 2:20 PM)29.36 "Hg (Sep 25, 7:20 AM)
Average55 °F87%29.85 "Hg
* Reported Sep 12 8:20 PM — Sep 27 8:20 PM, Stornoway, Weather by CustomWeather, © 2016

Note: Actual official high and low records may vary slightly from our data, if they occured in-between our weather recording intervals... More about our weather records

Advertising

Stornoway Weather History for the Previous 24 Hours

Scroll right to see more
 ConditionsComfort  
Time TempWeatherWind HumidityBarometerVisibility
8:20 PM
Tue, Sep 27
54 °FPassing clouds.35 mph88%29.59 "HgN/A
7:50 PM55 °FPassing clouds.35 mph82%29.59 "Hg5 mi
7:20 PM54 °FRain showers. Passing clouds.35 mph88%29.59 "HgN/A
6:50 PM55 °FScattered showers. Partly sunny.37 mph82%29.59 "HgN/A
6:20 PM55 °FScattered showers. Scattered clouds.32 mph82%29.56 "HgN/A
5:50 PM54 °FRain showers. Partly sunny.32 mph88%29.59 "Hg3 mi
5:20 PM55 °FScattered showers. Partly sunny.37 mph82%29.56 "HgN/A
4:50 PM55 °FScattered showers. Partly sunny.35 mph82%29.59 "HgN/A
4:20 PM55 °FSprinkles. Scattered clouds.30 mph82%29.59 "Hg6 mi
3:50 PM55 °FScattered showers. Scattered clouds.35 mph82%29.59 "HgN/A
3:20 PM55 °FScattered showers. Scattered clouds.31 mph82%29.59 "HgN/A
2:50 PM54 °FRain showers. Partly sunny.31 mph88%29.62 "Hg4 mi
2:20 PM55 °FRain. Broken clouds.28 mph82%29.62 "Hg6 mi
1:50 PM55 °FRain. Broken clouds.30 mph82%29.62 "Hg6 mi
1:20 PM57 °FScattered showers. Partly sunny.26 mph72%29.59 "HgN/A
12:50 PM57 °FSprinkles. Scattered clouds.31 mph72%29.59 "HgN/A
12:20 PM57 °FScattered clouds.31 mph72%29.59 "HgN/A
11:50 AM55 °FDrizzle. Broken clouds.25 mph77%29.59 "HgN/A
11:20 AM57 °FScattered clouds.25 mph67%29.59 "HgN/A
10:50 AM57 °FScattered showers. Scattered clouds.26 mph77%29.59 "HgN/A
10:20 AM57 °FScattered clouds.26 mph77%29.56 "HgN/A
9:50 AM55 °FScattered clouds.28 mph82%29.56 "HgN/A
9:20 AM55 °FScattered clouds.24 mph82%29.53 "HgN/A
8:50 AM55 °FDrizzle. Broken clouds.30 mph88%29.50 "HgN/A
8:20 AM55 °FDrizzle. Broken clouds.31 mph100%29.47 "Hg6 mi
7:50 AM54 °FDrizzle. Broken clouds.28 mph100%29.50 "Hg1 mi
7:20 AM52 °FPassing clouds.26 mph100%29.53 "Hg1 mi
6:50 AM52 °FPassing clouds.26 mph94%29.56 "HgN/A
6:20 AM54 °FLight rain. Passing clouds.18 mph88%29.59 "HgN/A
5:50 AM54 °FPassing clouds.21 mph88%29.65 "HgN/A
5:20 AM54 °FLight rain. Passing clouds.20 mph88%29.68 "HgN/A
4:50 AM54 °FPassing clouds.21 mph88%29.74 "HgN/A
4:20 AM54 °FPassing clouds.17 mph82%29.77 "HgN/A
3:50 AM54 °FLight rain. Passing clouds.17 mph88%29.77 "HgN/A
3:20 AM54 °FPassing clouds.18 mph82%29.80 "HgN/A
2:50 AM54 °FCool.16 mph88%29.80 "HgN/A
2:20 AM54 °FCool.17 mph88%29.83 "HgN/A
1:50 AM54 °FCool.15 mph88%29.83 "HgN/A
1:20 AM54 °FPassing clouds.15 mph88%29.86 "HgN/A
12:50 AM54 °FCool.15 mph88%29.86 "HgN/A
12:20 AM54 °FCool.13 mph88%29.89 "HgN/A
11:50 PM
Mon, Sep 26
54 °FCool.13 mph82%29.89 "HgN/A
11:20 PM52 °FCool.13 mph94%29.92 "HgN/A
10:50 PM52 °FPassing clouds.12 mph94%29.92 "HgN/A
10:20 PM52 °FPassing clouds.8 mph94%29.92 "HgN/A
9:50 PM48 °FPassing clouds.6 mph94%29.95 "HgN/A
9:20 PM50 °FPassing clouds.7 mph88%29.95 "HgN/A
Weather by CustomWeather, © 2016

See weather overviewHow to use our weather pages